Miscellaneous Local Product
Issued by NWS Hastings, NE

Home | Current Version | Previous Version | Graphics & Text | Print | Product List | Glossary On
Versions: 1 2 3 4 5 6 7 8 9 10 11 12 13 14 15 16 17 18 19 20 21 22 23 24 25 26 27 28 29 30 31 32 33 34 35 36 37 38 39 40 41 42 43 44 45 46 47 48 49 50
000
AXUS43 KGID 232302
MISGRI

GID CWA HOURLY WEATHER ROUNDUP
NATIONAL WEATHER SERVICE HASTINGS NE
600 PM CDT THU OCT 23 2014

NOTE: "FAIR" INDICATES FEW OR NO CLOUDS BELOW 12,000 FEET WITH NO
SIGNIFICANT WEATHER AND/OR OBSTRUCTIONS TO VISIBILITY.

...SOUTH CENTRAL NEBRASKA...

CITY           SKY/WX    TMP DP  RH WIND       PRES   REMARKS
GRAND ISLAND   MOCLDY    61  55  81 S7        30.02R
HASTINGS       MOCLDY    59  54  83 SW5       30.02F
KEARNEY        CLOUDY    57  54  88 S8        30.03R
ORD              N/A     65  51  60 S8        29.96F
YORK           PTCLDY    64  55  72 SW5       30.02R
AURORA         PTCLDY    61  57  84 S5        30.01S
LEXINGTON      CLOUDY    65  56  73 SE9       30.00S
HOLDREGE       CLOUDY    59  55  88 CALM      30.02S
HEBRON         CLEAR     66  55  67 SW5       30.02S

...NEBRASKA PANHANDLE...

CITY           SKY/WX    TMP DP  RH WIND       PRES   REMARKS
CHADRON        CLEAR     64  43  46 S7        29.90F
ALLIANCE       CLEAR     65  32  29 SW9       29.96F
SCOTTSBLUFF    CLEAR     72  33  24 W12       29.97F
SIDNEY         CLEAR     68  38  33 SW8       30.03F

...WESTERN AND NORTH CENTRAL NEBRASKA...

CITY           SKY/WX    TMP DP  RH WIND       PRES   REMARKS
VALENTINE      CLOUDY    68  33  27 SW5       29.91F
AINSWORTH      CLOUDY    66  40  38 CALM      29.92F
ONEILL         MOCLDY    66  47  50 S6        29.95S
BROKEN BOW     CLOUDY    66  50  56 S9        29.98S
IMPERIAL       PTCLDY    74  36  25 W6        30.01R
NORTH PLATTE   CLOUDY    71  43  36 S3        29.97S
MCCOOK         MOCLDY    71  48  43 S9        30.01S

...EASTERN NEBRASKA...

CITY           SKY/WX    TMP DP  RH WIND       PRES   REMARKS
NORFOLK        CLEAR     61  49  64 S6        29.98S
SO SIOUX CITY  CLEAR     66  45  46 S7        29.98S
TEKAMAH        CLEAR     66  50  56 S7        29.99S
COLUMBUS       CLEAR     66  48  52 S7        30.01S
ALBION         PTCLDY    62  51  66 S3        29.99S
OMAHA EPPLEY   PTCLDY    69  47  45 S6        30.01S
OFFUTT AFB     CLEAR     68  51  53 SW5       30.00S
MILLARD        CLEAR     69  52  53 CALM      30.01S
LINCOLN        CLEAR     69  50  50 E3        30.02R
NEBRASKA CITY  CLEAR     69  37  30 CALM      30.02R
BEATRICE       CLEAR     69  50  50 S5        30.01S
FALLS CITY     CLEAR     70  54  56 S3        30.01S

...NORTHERN KANSAS...

CITY           SKY/WX    TMP DP  RH WIND       PRES   REMARKS
GOODLAND       PTCLDY    70  53  54 S13       30.05F
HILL CITY      MOCLDY    71  56  58 S8        30.03S
NORTON         CLEAR     68  48  49 S6        30.01S
PHILLIPSBURG   CLEAR     64  63  94 E5        30.02S
SMITH CENTER   CLEAR     57  55  94 CALM      30.03F
BELOIT         CLEAR     66  61  82 CALM      30.00F
HAYS           PTCLDY    72  57  60 S7        30.03S
RUSSELL        MOCLDY    70  57  63 S7        30.01F
CONCORDIA      PTCLDY    68  57  68 S3        30.01F
SALINA         PTCLDY    70  60  70 S6        30.01F
TOPEKA         CLEAR     68  62  81 SE6       30.03S



USA.gov is the U.S. government's official web portal to all federal, state and local government web resources and services.